Mazatlan Airport, Mexico

3:47 PM MDT on August 17, 2017 (GMT -0600)
Gen Rafael Buelna International

Weather History for MMMZ - January, 2013

Change the Weather History Date:

Tuesday, January 29, 2013

  Actual Average Record
Temperature  
Mean Temperature 68 °F -  
Max Temperature 78 °F 78 °F 84 °F (2005)
Min Temperature 55 °F 51 °F 46 °F (1999)
Cooling Degree Days 4    
Growing Degree Days 18 (Base 50)    
Moisture  
Dew Point 53 °F    
Average Humidity 63    
Maximum Humidity 77    
Minimum Humidity 41    
Precipitation  
Precipitation 0.00 in - - ()
Sea Level Pressure  
Sea Level Pressure 30.01 in    
Wind  
Wind Speed 8 mph ()    
Max Wind Speed 16 mph    
Max Gust Speed -    
Visibility 11.4 miles    
Events      
Averages and records for this station are not official NWS values.
T = Trace of Precipitation, MM = Missing Value Source: Averaged Metar Reports

Daily Weather History Graph

Daily Weather History Graph

Search for Another Location

Airport or City:

Trip Planner

Search our weather history database for the weather conditions in past years. The results will help you decide how hot, cold, wet, or windy it might be!

Date:

Astronomy

Jan. 29, 2013 Rise Set
Actual Time 6:45 AM MST 5:50 PM MST
Civil Twilight 6:22 AM MST 6:14 PM MST
Nautical Twilight 5:55 AM MST 6:41 PM MST
Astronomical Twilight 5:28 AM MST 7:08 PM MST
Moon 8:22 PM MST (1/29) 8:07 AM MST (1/29)
Length of Visible Light 11h 52m
Length of Day
11h 04m
Waning Gibbous, 93% of the Moon is Illuminated
Jan 29
Waning Gibbous
Feb 3
Last Quarter
Feb 10
New
Feb 17
First Quarter
Feb 25
Full

Hourly Weather History & Observations

Time (MST) Temp. Dew Point Humidity Pressure Visibility Wind Dir Wind Speed Gust Speed Precip Events Conditions
12:43 AM 66.2 °F 53.6 °F 64% 30.01 in 10.0 mi West 8.1 mph - N/A   Mostly Cloudy
1:40 AM 64.4 °F 53.6 °F 68% 30.01 in 10.0 mi NNW 8.1 mph - N/A   Mostly Cloudy
2:41 AM 64.4 °F 53.6 °F 68% 30.00 in 10.0 mi NW 6.9 mph - N/A   Overcast
3:52 AM 62.6 °F 53.6 °F 72% 29.99 in 10.0 mi Calm Calm - N/A   Overcast
4:41 AM 60.8 °F 53.6 °F 77% 29.99 in 10.0 mi WSW 8.1 mph - N/A   Overcast
5:40 AM 60.8 °F 51.8 °F 72% 30.02 in 10.0 mi NW 6.9 mph - N/A   Overcast
6:41 AM 60.8 °F 51.8 °F 72% 30.04 in 10.0 mi West 8.1 mph - N/A   Mostly Cloudy
7:41 AM 60.8 °F 53.6 °F 77% 30.04 in 10.0 mi West 8.1 mph - N/A   Overcast
8:47 AM 68.0 °F 51.8 °F 56% 30.06 in 12.0 mi WNW 6.9 mph - N/A   Overcast
9:52 AM 73.4 °F 50.0 °F 44% 30.08 in 15.0 mi West 9.2 mph - N/A   Overcast
10:53 AM 77.0 °F 51.8 °F 41% 30.08 in 15.0 mi WSW 8.1 mph - N/A   Mostly Cloudy
11:44 AM 75.2 °F 53.6 °F 47% 30.04 in 15.0 mi SSW 10.4 mph - N/A   Overcast
12:43 PM 78.8 °F 55.4 °F 44% 30.02 in 15.0 mi WSW 12.7 mph - N/A   Overcast
1:50 PM 75.2 °F 55.4 °F 50% 29.99 in 15.0 mi West 13.8 mph - N/A   Overcast
2:43 PM 75.2 °F 55.4 °F 50% 29.98 in 12.0 mi West 16.1 mph - N/A   Overcast
3:44 PM 73.4 °F 55.4 °F 53% 29.97 in 12.0 mi West 16.1 mph - N/A   Overcast
4:45 PM 71.6 °F 55.4 °F 57% 29.96 in 12.0 mi West 13.8 mph - N/A   Mostly Cloudy
5:40 PM 68.0 °F 55.4 °F 64% 29.95 in 10.0 mi West 11.5 mph - N/A   Mostly Cloudy
6:40 PM 64.4 °F 53.6 °F 68% 29.95 in 10.0 mi West 9.2 mph - N/A   Mostly Cloudy
7:41 PM 60.8 °F 53.6 °F 77% 29.95 in 10.0 mi West 6.9 mph - N/A   Mostly Cloudy
8:45 PM 62.6 °F 53.6 °F 72% 29.99 in 10.0 mi WNW 8.1 mph - N/A   Mostly Cloudy
9:42 PM 60.8 °F 51.8 °F 72% 30.00 in 10.0 mi WNW 8.1 mph - N/A   Mostly Cloudy
10:42 PM 59.0 °F 51.8 °F 77% 30.04 in 10.0 mi WNW 6.9 mph - N/A   Mostly Cloudy
11:44 PM 55.4 °F 48.2 °F 77% 30.01 in 10.0 mi West 6.9 mph - N/A   Mostly Cloudy